Total_Precipitation_Accumulation
1.16 1.06 1.01 1.01 0.95 0.90 0.87 0.86 0.85 0.82 0.74 0.69 0.64 0.57 0.54 0.53 0.47 0.41 0.34 0.33 0.34 0.41 0.58 0.89 1.25 1.55 1.77 1.85 1.84 1.66 1.55 1.40 1.24 1.15 1.10 1.17 1.19 1.17 1.23 1.38 1.38 1.31 1.30
1.15 1.10 1.00 0.97 0.90 0.81 0.76 0.76 0.73 0.75 0.72 0.67 0.62 0.53 0.50 0.50 0.48 0.45 0.43 0.44 0.39 0.39 0.49 0.70 0.98 1.29 1.66 1.91 1.98 1.91 1.74 1.64 1.47 1.30 1.22 1.21 1.24 1.22 1.21 1.28 1.38 1.37 1.33
1.24 1.20 1.10 0.99 0.95 0.91 0.87 0.83 0.79 0.78 0.73 0.67 0.64 0.57 0.51 0.46 0.47 0.47 0.49 0.48 0.47 0.46 0.51 0.66 0.81 1.04 1.47 1.88 2.10 2.18 2.03 1.85 1.71 1.54 1.32 1.20 1.21 1.26 1.25 1.29 1.38 1.47 1.47
1.38 1.30 1.22 1.12 1.08 1.08 1.05 0.99 0.90 0.85 0.78 0.69 0.63 0.59 0.55 0.49 0.44 0.45 0.50 0.50 0.48 0.48 0.53 0.58 0.72 0.94 1.25 1.63 2.02 2.29 2.36 2.16 2.03 1.92 1.68 1.44 1.27 1.28 1.33 1.35 1.41 1.52 1.62
1.67 1.47 1.34 1.31 1.31 1.31 1.24 1.14 1.04 0.92 0.85 0.77 0.70 0.66 0.59 0.54 0.50 0.48 0.47 0.50 0.51 0.49 0.51 0.54 0.60 0.73 0.96 1.33 1.86 2.33 2.67 2.66 2.47 2.34 2.12 1.88 1.60 1.43 1.44 1.44 1.47 1.57 1.70
1.85 1.72 1.55 1.47 1.47 1.48 1.42 1.29 1.17 1.07 0.97 0.95 0.91 0.82 0.70 0.62 0.57 0.53 0.49 0.50 0.52 0.51 0.50 0.54 0.59 0.60 0.69 0.86 1.28 1.87 2.40 2.75 2.79 2.70 2.57 2.33 2.10 1.86 1.73 1.67 1.63 1.70 1.83
1.83 1.82 1.64 1.57 1.46 1.41 1.37 1.33 1.28 1.25 1.17 1.14 1.23 1.14 0.97 0.82 0.72 0.64 0.59 0.56 0.56 0.58 0.64 0.68 0.73 0.70 0.67 0.70 0.78 1.10 1.69 2.36 2.77 2.93 2.93 2.87 2.64 2.36 2.13 1.97 1.90 1.93 2.02
1.83 1.91 1.81 1.70 1.64 1.54 1.50 1.49 1.46 1.42 1.35 1.25 1.32 1.40 1.29 1.16 0.93 0.72 0.65 0.60 0.62 0.68 0.77 0.81 0.86 0.86 0.81 0.73 0.61 0.71 1.00 1.62 2.34 2.89 3.05 3.06 3.12 2.93 2.59 2.33 2.21 2.24 2.31
1.72 1.85 1.92 1.87 1.83 1.79 1.69 1.56 1.53 1.52 1.52 1.40 1.31 1.57 1.57 1.23 0.92 0.74 0.64 0.57 0.58 0.60 0.61 0.67 0.73 0.78 0.86 0.90 0.76 0.68 0.75 1.07 1.67 2.52 3.09 3.18 3.27 3.44 3.26 2.81 2.53 2.46 2.49
1.73 1.76 1.83 1.86 1.83 1.80 1.73 1.61 1.52 1.46 1.54 1.58 1.43 1.28 1.23 1.16 1.15 0.95 0.71 0.59 0.56 0.57 0.54 0.53 0.56 0.62 0.74 0.88 0.93 0.87 0.84 0.93 1.25 1.86 2.65 3.28 3.47 3.68 3.84 3.49 2.99 2.69 2.57
1.78 1.73 1.74 1.79 1.83 1.81 1.77 1.69 1.63 1.63 1.63 1.60 1.54 1.37 1.19 1.04 1.02 1.11 0.93 0.73 0.67 0.63 0.60 0.56 0.56 0.56 0.58 0.70 0.85 0.91 1.00 1.01 1.19 1.53 2.01 2.80 3.58 3.95 4.16 4.01 3.46 2.95 2.67
1.82 1.76 1.67 1.71 1.80 1.83 1.82 1.81 1.78 1.76 1.77 1.68 1.56 1.47 1.47 1.45 1.24 1.16 1.04 0.80 0.75 0.71 0.69 0.67 0.66 0.63 0.60 0.62 0.74 0.90 0.98 1.05 1.14 1.31 1.51 2.00 2.92 3.76 4.12 4.10 3.79 3.35 2.91
1.93 1.78 1.68 1.63 1.68 1.70 1.70 1.73 1.83 1.86 1.86 1.87 1.82 1.67 1.53 1.47 1.39 1.39 1.42 1.19 0.97 0.83 0.81 0.80 0.78 0.77 0.73 0.71 0.78 0.86 0.86 1.01 1.15 1.23 1.28 1.38 1.86 2.81 3.74 4.16 4.02 3.68 3.39
1.88 1.77 1.70 1.62 1.57 1.58 1.62 1.66 1.72 1.78 1.82 1.81 1.77 1.74 1.68 1.57 1.53 1.55 1.62 1.66 1.50 1.15 1.00 0.92 0.83 0.82 0.84 0.86 0.92 0.98 0.85 0.99 1.13 1.20 1.31 1.33 1.46 1.84 2.69 3.76 4.39 4.11 3.67
1.94 1.86 1.76 1.72 1.66 1.63 1.62 1.62 1.63 1.64 1.68 1.76 1.75 1.70 1.68 1.57 1.58 1.59 1.57 1.66 1.86 1.67 1.16 0.91 0.87 0.87 0.87 0.92 1.04 0.98 0.88 1.01 1.14 1.15 1.24 1.31 1.37 1.45 1.78 2.51 3.54 4.29 4.23
2.07 2.08 1.99 1.87 1.77 1.77 1.75 1.69 1.62 1.53 1.56 1.64 1.73 1.78 1.75 1.63 1.56 1.57 1.58 1.54 1.57 1.70 1.45 0.96 0.88 0.92 0.96 0.97 1.09 1.00 0.96 1.11 1.15 1.10 1.15 1.21 1.29 1.40 1.54 1.83 2.46 3.47 4.14
2.16 2.19 2.20 2.11 1.99 1.90 1.87 1.85 1.78 1.69 1.66 1.59 1.61 1.66 1.68 1.60 1.60 1.58 1.56 1.48 1.40 1.50 1.55 1.04 0.87 0.90 0.98 1.03 1.09 1.06 1.04 1.04 1.04 1.05 1.09 1.18 1.24 1.33 1.48 1.67 1.94 2.57 3.48
2.19 2.19 2.33 2.31 2.20 2.09 2.01 2.01 1.99 1.91 1.87 1.78 1.69 1.63 1.61 1.63 1.69 1.65 1.58 1.48 1.38 1.34 1.47 1.30 0.96 0.93 1.01 1.08 1.13 1.16 1.17 1.14 1.09 1.17 1.17 1.20 1.25 1.29 1.42 1.58 1.77 2.07 2.66
2.08 2.17 2.33 2.45 2.33 2.25 2.15 2.02 2.04 2.12 2.09 2.01 1.92 1.89 1.82 1.77 1.83 1.80 1.70 1.55 1.41 1.32 1.32 1.34 1.11 0.98 1.04 1.13 1.25 1.27 1.25 1.23 1.15 1.23 1.26 1.29 1.31 1.30 1.35 1.47 1.64 1.83 2.09
1.89 2.10 2.26 2.42 2.45 2.46 2.52 2.40 2.29 2.17 2.16 2.15 2.09 2.03 2.06 2.03 1.98 1.94 1.91 1.69 1.47 1.40 1.34 1.37 1.24 1.06 1.03 1.10 1.36 1.48 1.46 1.39 1.31 1.20 1.26 1.29 1.35 1.35 1.34 1.35 1.42 1.57 1.83
1.80 1.92 2.05 2.20 2.28 2.50 2.98 3.06 2.63 2.12 1.95 1.94 1.88 1.81 1.89 2.07 2.15 2.15 2.14 1.95 1.76 1.72 1.62 1.58 1.44 1.26 1.15 1.24 1.46 1.54 1.62 1.55 1.54 1.39 1.25 1.18 1.18 1.19 1.22 1.30 1.37 1.47 1.67
1.74 1.83 1.89 1.91 1.98 2.21 2.87 2.99 2.44 1.94 1.73 1.72 1.71 1.63 1.63 1.78 1.86 1.93 2.05 2.06 2.05 2.09 2.04 1.89 1.69 1.51 1.29 1.23 1.36 1.65 1.78 1.87 1.93 1.61 1.42 1.34 1.22 1.27 1.26 1.25 1.34 1.38 1.55
1.64 1.66 1.70 1.69 1.71 1.95 2.49 2.54 2.26 1.85 1.64 1.50 1.46 1.45 1.45 1.46 1.58 1.48 1.62 1.76 1.83 2.00 2.12 2.08 2.01 1.67 1.43 1.34 1.52 1.77 1.85 1.95 1.93 1.73 1.72 1.82 1.56 1.46 1.38 1.38 1.45 1.40 1.54
1.60 1.54 1.53 1.52 1.54 1.72 2.25 2.40 2.23 1.81 1.67 1.53 1.45 1.33 1.27 1.28 1.43 1.49 1.52 1.52 1.45 1.55 1.80 1.93 2.03 1.83 1.61 1.59 1.82 2.06 2.19 2.22 2.11 1.99 1.93 2.13 1.83 1.64 1.53 1.47 1.51 1.46 1.50
1.47 1.44 1.39 1.43 1.41 1.54 2.07 2.44 2.31 1.84 1.80 1.68 1.54 1.46 1.35 1.21 1.49 1.63 1.50 1.42 1.30 1.34 1.50 1.77 1.95 1.98 1.98 2.05 2.20 2.45 2.60 2.67 2.58 2.23 2.03 2.15 2.01 1.78 1.73 1.76 1.71 1.63 1.50
1.30 1.31 1.26 1.28 1.27 1.38 1.82 2.31 2.38 1.85 1.75 1.63 1.53 1.50 1.62 1.54 1.62 1.57 1.39 1.41 1.43 1.27 1.22 1.31 1.41 1.51 1.52 1.60 1.90 2.13 2.35 2.59 2.57 2.54 2.14 2.11 2.12 2.08 2.32 2.02 1.74 1.50 1.38